TimeCDT,TemperatureF,Dew PointF,Humidity,Sea Level PressureIn,VisibilityMPH,Wind Direction,Wind SpeedMPH,Gust SpeedMPH,PrecipitationIn,Events,Conditions,WindDirDegrees,DateUTC
12:53 AM,80.1,78.1,94,30.08,10.0,South,3.5,-,N/A,,Scattered Clouds,170,2012-09-01 05:53:00
1:05 AM,80.6,78.8,94,30.06,10.0,SSE,4.6,-,N/A,,Mostly Cloudy,160,2012-09-01 06:05:00
1:26 AM,80.6,78.8,94,30.06,10.0,SSE,3.5,-,N/A,,Scattered Clouds,160,2012-09-01 06:26:00
1:53 AM,80.1,78.1,94,30.08,10.0,South,3.5,-,N/A,,Clear,170,2012-09-01 06:53:00
2:53 AM,80.1,78.1,94,30.07,10.0,South,4.6,-,N/A,,Partly Cloudy,180,2012-09-01 07:53:00
3:53 AM,79.0,77.0,94,30.07,10.0,SSE,5.8,-,N/A,,Clear,160,2012-09-01 08:53:00
4:53 AM,79.0,78.1,97,30.07,10.0,SSE,4.6,-,N/A,,Clear,160,2012-09-01 09:53:00
5:53 AM,79.0,77.0,94,30.08,10.0,South,3.5,-,N/A,,Partly Cloudy,170,2012-09-01 10:53:00
6:53 AM,78.1,77.0,96,30.10,10.0,SE,3.5,-,N/A,,Partly Cloudy,140,2012-09-01 11:53:00
7:53 AM,81.0,79.0,94,30.11,10.0,Calm,Calm,-,N/A,,Partly Cloudy,0,2012-09-01 12:53:00
8:53 AM,82.0,78.1,88,30.12,10.0,South,3.5,-,N/A,,Partly Cloudy,170,2012-09-01 13:53:00
9:53 AM,81.0,78.1,91,30.14,10.0,SW,8.1,-,0.00,Rain,Light Rain,230,2012-09-01 14:53:00
10:53 AM,78.8,75.2,89,30.13,6.0,South,4.6,-,N/A,Rain,Rain,190,2012-09-01 15:53:00
11:53 AM,81.0,77.0,88,30.14,10.0,Calm,Calm,-,0.01,,Partly Cloudy,0,2012-09-01 16:53:00
12:53 PM,84.9,79.0,82,30.12,10.0,Calm,Calm,-,N/A,,Partly Cloudy,0,2012-09-01 17:53:00
1:53 PM,86.0,79.0,79,30.11,10.0,South,4.6,-,N/A,,Clear,170,2012-09-01 18:53:00
2:28 PM,86.0,75.2,70,30.07,10.0,South,9.2,-,N/A,Thunderstorm,Scattered Clouds,180,2012-09-01 19:28:00
2:53 PM,86.0,79.0,79,30.09,10.0,SSW,6.9,-,N/A,Thunderstorm,Scattered Clouds,200,2012-09-01 19:53:00
3:03 PM,86.0,78.8,79,30.07,10.0,SSW,10.4,16.1,N/A,,Clear,200,2012-09-01 20:03:00
3:10 PM,86.0,78.8,79,30.07,10.0,SSW,10.4,-,N/A,Thunderstorm,Clear,210,2012-09-01 20:10:00
3:42 PM,84.2,78.8,84,30.06,10.0,SW,8.1,-,N/A,,Clear,220,2012-09-01 20:42:00
3:53 PM,84.9,77.0,77,30.08,10.0,SW,6.9,-,N/A,,Clear,230,2012-09-01 20:53:00
4:53 PM,84.0,78.1,82,30.09,10.0,Calm,Calm,-,N/A,,Scattered Clouds,0,2012-09-01 21:53:00
5:09 PM,82.4,78.8,89,30.07,10.0,Calm,Calm,-,N/A,,Mostly Cloudy,0,2012-09-01 22:09:00
5:27 PM,82.4,78.8,89,30.06,10.0,Calm,Calm,-,N/A,,Overcast,0,2012-09-01 22:27:00
5:46 PM,84.2,78.8,84,30.06,10.0,SSW,5.8,-,N/A,,Scattered Clouds,200,2012-09-01 22:46:00
5:53 PM,84.0,78.1,82,30.08,10.0,SSW,5.8,-,N/A,,Partly Cloudy,210,2012-09-01 22:53:00
6:53 PM,82.0,75.9,82,30.06,10.0,South,5.8,-,0.00,Rain,Light Rain,190,2012-09-01 23:53:00
7:38 PM,80.6,77.0,89,30.05,10.0,West,4.6,-,0.00,,Mostly Cloudy,280,2012-09-02 00:38:00
7:50 PM,80.6,77.0,89,30.04,10.0,Calm,Calm,-,0.00,Rain,Light Rain,0,2012-09-02 00:50:00
7:53 PM,81.0,77.0,88,30.06,10.0,Calm,Calm,-,0.00,Rain,Light Rain,0,2012-09-02 00:53:00
8:05 PM,80.6,78.8,94,30.04,10.0,Calm,Calm,-,0.00,,Scattered Clouds,0,2012-09-02 01:05:00
8:53 PM,79.0,77.0,94,30.07,10.0,Calm,Calm,-,0.00,,Clear,0,2012-09-02 01:53:00
9:53 PM,79.0,77.0,94,30.08,10.0,Calm,Calm,-,N/A,,Clear,0,2012-09-02 02:53:00
10:53 PM,79.0,77.0,94,30.08,10.0,Calm,Calm,-,N/A,,Clear,0,2012-09-02 03:53:00
11:53 PM,78.1,77.0,96,30.07,10.0,Calm,Calm,-,N/A,,Clear,0,2012-09-02 04:53:00